Voltar ao catálogo

FENGYUN 1C DEB *

AtivoPO
NORAD 47001·DEBRIS·🇨🇳 China

Lançado May 10, 1999 de Taiyuan Satellite Launch Center

Loading…

Próximas Passagens (próximas 24 horas)

TLE

EnvelhecendoSource: Space-Track

Época: Sep 10, 2026, 00:46 UTC

1 47001U 99025FAB 26253.03212943  .00002517  00000-0  79213-3 0  9999
2 47001  99.2891 338.8865 0049033 336.2249  23.6672 14.40727854778180

Acompanhe FENGYUN 1C DEB * em tempo real com AllMySat

Download on the App Store